Вернуться в каталог

DELTA 4 R/B

АктивенMEO
NORAD 32288·ROCKET BODY·🇺🇸 United States

Запущен Nov 11, 2007 с Cape Canaveral Space Force Station

Loading…

Ближайшие Пролёты (ближайшие 24 часа)

TLE

СвежийSource: Space-Track

Эпоха: Sep 13, 2026, 07:36 UTC

1 32288U 07054B   26256.31668859 -.00000197  00000-0  00000+0 0  9993
2 32288  11.7118  50.7253 0245318 143.4596 218.3350  0.95871030 26082

Отслеживайте DELTA 4 R/B в реальном времени с AllMySat

Download on the App Store